Torna al catalogo

STARLINK-34194

AttivoComunicazioniVLEO
NORAD 64179·PAYLOAD·🇺🇸 United States

Lanciato May 28, 2025 da Cape Canaveral Space Force Station

Loading…

Prossimi Passaggi (prossime 24 ore)

TLE

AggiornatoSource: CelesTrak SupGP

Epoca: Sep 14, 2026, 22:30 UTC

1 64179C 25113K   26257.93798611  .00051980  00000+0  15361-2 0  2572
2 64179  53.1587 287.6286 0001249  90.7771 240.9168 15.34357179    10

Traccia STARLINK-34194 in tempo reale con AllMySat

Download on the App Store